Regional Weather Roundup
Issued by NWS

Home | Current Version | Previous Version | Text Only | Print | Product List | Glossary Off
Versions: 1 2 3 4 5 6 7 8 9 10 11 12 13 14 15 16 17 18 19 20 21 22 23 24 25 26 27

000
ASUS45 KSLC 271510
RWRUT

UTAH REGIONAL WEATHER ROUNDUP
NATIONAL WEATHER SERVICE SALT LAKE CITY UT
900 AM MDT SAT AUG 27 2016

UTZ001>011-023>025-271600-

NORTHERN UTAH

CITY           SKY/WX    TMP DP  RH WIND       PRES   REMARKS
BRIGHAM CITY     N/A     57  35  42 N3        30.09R
HILL AFB       SUNNY     63  32  31 E13       30.10R
LOGAN          SUNNY     53  39  59 CALM      30.11R
OGDEN          SUNNY     64  33  31 S10       30.08R
PROVO AIRPORT  MOSUNNY   64  43  45 SE8       30.12S
SALT LAKE CITY MOSUNNY   71  44  37 SE14      30.07S
VERNAL         CLOUDY    55  48  77 CALM      30.22R
WENDOVER       SUNNY     63  37  39 E7        30.09R
HEBER CITY     SUNNY     52  37  58 CALM      30.18R
WEST JORDAN    SUNNY     69  43  39 S16       30.11R

$$

UTZ012>022-026-027-271600-

SOUTHERN/CENTRAL UTAH

CITY           SKY/WX    TMP DP  RH WIND       PRES   REMARKS
BLANDING       PTSUNNY   62  47  58 CALM      30.29R
BRYCE CANYON   CLOUDY    49  44  83 SE6       30.31R
CEDAR CITY     CLOUDY    55  49  80 SW6       30.20R
MILFORD        CLOUDY    61  47  59 SW17      30.15R
MOAB/CYNLANDS  MOSUNNY   68  45  43 E9        30.13F
PRICE          SUNNY     60  42  51 CALM      30.22R
ST GEORGE      SUNNY     66  54  63 SE6       30.14R

$$

REGIONAL REPORTS     COLORADO/ARIZONA

CITY           SKY/WX    TMP DP  RH WIND       PRES   REMARKS
CRAIG, CO      SUNNY     56  43  61 CALM      30.26S
GRAND JUNCTION SUNNY     64  46  52 E8        30.19S
RIFLE          SUNNY     55  50  83 NE3       30.26S
MONTROSE       SUNNY     58  46  64 E5        30.24F
CORTEZ         MOSUNNY   56  53  90 NE7       30.22S
PAGE, AZ       LGT RAIN  64  53  67 CALM      30.17R
GRAND CANYON   CLOUDY    54  50  86 W3        30.29R
KINGMAN        PTSUNNY   65  54  67 NE8       30.14R
FLAGSTAFF      HVY RAIN  49  49 100 VRB5      30.35R FOG

$$

REGIONAL REPORTS    NEVADA/IDAHO/WYOMING

CITY           SKY/WX    TMP DP  RH WIND       PRES   REMARKS
LAS VEGAS, NV  CLOUDY    72  55  55 NW9       30.04S
ELY            SUNNY     56  35  45 S3        30.22R
ELKO           SUNNY     52  22  30 NE5       30.14R
POCATELLO, ID  SUNNY     57  32  38 CALM      30.07S
BURLEY         SUNNY     57  44  62 CALM      30.03S
EVANSTON, WY   SUNNY     56  34  43 SW8       30.23R
ROCK SPRINGS   SUNNY     58  32  37 VRB3      30.22R

$$




USA.gov is the U.S. government's official web portal to all federal, state and local government web resources and services.